GFSNGP_sfc_rhum_060.txt.gz
RH
21 17 16 18 18 20 23 24 28 25 20 21 19 18 18 24 26 31 34 32 32 40 45 48 56 64 75 85 87 86 86 86 90 88 86 88 91 92 89 86 83 78 86 90
31 21 22 23 19 18 21 20 25 24 23 17 18 20 24 29 34 38 46 48 46 46 51 59 62 64 68 72 76 75 80 82 79 80 80 82 79 78 75 75 75 82 83 88
38 31 32 56 33 22 22 25 26 27 22 17 21 24 26 34 39 44 51 52 55 57 59 60 62 63 66 67 65 66 68 68 67 64 66 67 63 65 71 71 76 85 87 87
48 68 82 26 26 20 24 21 20 20 20 19 20 25 34 39 42 48 50 53 55 56 58 58 57 57 57 53 56 58 58 58 58 60 61 64 67 74 79 84 84 87 86 91
81 50 30 30 30 31 31 25 19 22 19 20 30 37 44 43 42 46 50 50 51 51 53 54 53 51 50 51 50 54 55 57 57 60 64 70 76 84 89 88 86 80 54 51
62 62 82 30 21 22 24 37 18 19 21 24 36 44 27 45 46 48 46 48 50 50 50 51 50 46 49 51 53 56 58 58 58 59 65 76 78 70 55 48 46 44 45 46
62 70 41 28 26 25 40 37 22 21 22 32 39 32 42 46 47 44 46 48 49 47 48 47 45 48 52 54 58 58 57 56 57 56 52 49 48 45 43 42 46 56 58 57
63 88 78 32 28 32 27 32 26 30 29 38 44 50 49 47 46 47 48 48 46 49 50 47 46 49 52 54 49 49 48 47 44 43 38 38 44 45 44 46 54 56 84 56
50 45 39 32 25 25 29 25 33 31 31 37 51 50 48 49 48 46 44 43 45 48 52 48 43 41 44 45 43 44 45 45 46 44 41 39 40 42 37 37 41 47 47 56
53 30 35 37 28 37 32 32 32 31 36 46 48 49 49 49 48 46 42 43 44 48 49 51 46 43 44 43 41 44 45 45 41 38 35 31 26 28 31 44 51 48 52 56
43 36 46 43 39 32 38 44 42 37 39 42 46 48 49 49 47 42 42 45 44 49 51 49 47 48 46 44 41 39 38 34 35 36 33 30 30 38 45 51 63 62 60 60
56 32 42 28 37 35 42 43 40 42 45 43 44 47 46 47 44 44 47 45 48 50 51 50 49 47 42 35 32 33 32 34 48 44 44 35 32 33 69 63 62 68 68 72
35 35 36 54 52 45 44 43 44 45 43 47 44 45 46 48 48 55 47 50 51 53 54 50 47 44 37 38 37 37 35 40 43 48 43 45 45 46 49 54 57 62 58 62
43 50 49 52 43 55 53 50 56 46 46 47 46 46 50 52 53 51 54 52 51 54 51 43 39 37 36 36 40 45 48 62 45 47 47 52 52 55 54 61 68 63 52 55
50 49 52 52 53 56 54 56 57 56 55 54 51 55 55 56 56 59 54 52 53 53 47 36 34 38 38 44 38 40 41 43 54 61 63 62 62 61 60 61 62 60 56 51
52 56 57 58 56 59 59 59 58 65 63 60 59 58 55 56 59 56 53 53 52 49 42 69 52 44 44 38 34 38 47 65 59 53 56 58 59 62 58 62 62 63 63 65
67 71 67 66 64 64 62 59 60 62 62 60 62 61 62 61 59 61 66 68 76 75 68 62 48 40 45 37 36 38 42 47 66 50 55 58 63 64 62 66 67 66 68 72
57 59 59 60 65 70 72 69 68 67 69 71 81 88 89 88 90 92 87 84 78 69 52 46 45 44 40 39 40 48 53 52 55 62 59 69 67 62 67 67 65 67 70 67
62 65 66 66 67 70 75 74 73 80 89 92 92 95 96 96 91 90 87 90 89 73 57 52 61 50 49 58 48 54 60 67 62 59 66 68 73 67 73 76 73 74 71 71
87 86 88 90 88 89 93 94 97 97 97 96 97 96 95 95 93 92 88 79 63 59 52 53 48 49 50 57 57 53 66 72 63 69 76 73 78 81 78 72 74 76 80 79
97 97 97 96 97 98 97 97 96 95 96 96 94 94 94 94 94 88 80 71 67 61 57 62 53 51 48 51 48 71 75 76 76 76 78 81 82 78 79 80 79 80 82 81
97 96 97 96 94 96 95 95 92 95 94 95 96 95 95 90 88 86 80 66 66 72 62 61 59 73 62 67 58 76 70 70 73 77 78 80 81 82 81 80 81 82 82 82
96 94 93 94 93 89 88 87 95 95 95 95 95 91 77 68 64 69 73 65 65 74 63 71 83 84 76 79 78 78 77 77 78 78 80 81 82 82 81 81 80 81 82 82
90 90 88 74 69 72 82 85 79 80 88 86 88 83 73 81 83 70 72 81 82 79 80 83 86 73 81 81 80 79 78 79 80 81 78 83 82 80 79 81 80 78 79 80
91 92 90 90 83 84 82 78 70 67 70 70 73 72 74 74 81 80 81 82 80 70 77 89 77 74 80 80 80 80 80 80 80 81 80 81 80 80 80 80 80 81 82 82
87 84 85 86 84 81 81 78 80 73 69 77 79 85 86 82 79 77 80 76 72 70 75 80 82 81 80 78 79 79 79 75 78 78 81 80 79 79 80 79 81 81 82 82
86 86 80 80 79 80 79 79 82 84 84 88 86 86 83 87 88 82 86 85 83 80 80 80 80 80 80 80 78 77 77 77 78 79 81 80 80 81 82 82 83 83 83 84

GFSNGP_sfc_rhum_066.txt.gz
RH
21 20 19 21 20 19 19 25 39 30 22 18 16 16 17 20 20 17 18 19 22 26 34 39 62 77 80 85 84 85 90 93 97 96 95 95 95 96 95 95 94 92 92 92
34 22 20 22 18 18 17 18 18 19 21 15 13 12 14 17 18 19 21 26 27 28 37 59 73 82 86 87 89 87 90 94 93 94 93 95 95 93 92 91 90 90 91 91
46 26 25 39 25 18 17 17 17 22 19 14 14 14 16 18 17 20 30 33 35 35 52 69 76 80 88 85 83 86 90 87 87 86 89 89 86 84 86 88 88 91 94 92
64 69 59 28 18 16 20 17 14 14 14 13 14 14 16 18 22 27 34 38 42 53 60 65 70 73 75 73 76 77 75 76 75 77 78 75 74 76 84 88 90 90 89 87
68 59 36 25 22 22 24 23 17 17 14 13 12 21 29 25 30 36 40 46 51 53 57 59 63 66 63 64 62 63 66 65 61 63 64 66 76 81 83 83 84 88 82 82
75 63 69 40 22 19 21 38 19 17 21 19 23 48 31 32 36 40 40 44 49 52 53 54 54 53 55 56 57 58 59 60 60 63 65 72 75 81 79 77 73 67 57 60
68 72 52 28 24 22 41 45 26 21 22 24 29 32 37 35 39 38 40 42 46 47 50 50 49 51 54 55 58 57 58 57 59 64 68 71 72 70 66 59 65 75 72 75
75 76 72 30 26 33 35 37 28 27 28 37 45 41 38 39 41 39 39 42 43 48 49 48 47 50 53 57 54 55 58 59 58 56 48 47 55 54 49 64 73 76 72 76
51 57 42 42 38 38 36 39 38 36 30 32 44 41 40 42 40 39 39 43 41 45 49 50 48 49 55 56 53 54 54 51 47 43 42 43 52 51 52 55 66 80 81 87
82 37 32 37 37 36 34 38 29 28 30 32 42 40 41 41 40 41 39 40 40 47 51 53 50 48 52 50 48 50 50 49 46 45 40 36 31 36 58 76 83 82 83 83
61 46 44 35 35 40 38 38 32 30 33 32 41 40 40 40 41 40 39 40 43 49 53 51 46 48 45 46 46 45 45 40 41 43 42 39 47 53 78 73 81 86 85 82
58 37 50 45 46 43 42 38 34 35 36 33 38 39 38 40 40 40 41 43 46 49 49 45 46 46 44 42 40 41 40 46 70 69 63 42 49 53 71 72 75 72 68 81
30 33 36 38 39 42 43 41 37 40 37 35 36 36 37 40 42 50 42 47 48 50 49 49 48 46 39 41 42 47 54 57 64 68 67 67 68 73 85 74 70 70 66 62
27 31 38 35 44 44 44 40 43 36 37 45 39 38 44 44 45 43 46 46 48 48 48 44 40 42 41 42 51 58 56 70 62 65 67 73 71 74 77 83 89 90 71 65
30 31 37 43 40 41 42 41 45 44 43 45 44 47 45 45 46 49 51 48 47 47 43 37 38 38 40 55 46 53 56 61 72 78 79 76 76 78 78 78 81 82 78 74
45 37 43 44 45 44 44 47 50 53 50 49 50 51 48 48 54 54 53 54 54 56 56 71 56 53 55 46 48 52 58 71 74 68 77 75 75 76 73 77 78 83 84 86
59 60 57 56 53 51 50 52 49 52 56 57 66 62 63 73 74 76 74 71 73 73 70 68 56 48 56 55 57 63 84 77 82 60 67 71 77 77 76 82 84 85 88 94
53 53 55 55 57 62 72 79 80 79 81 82 84 86 89 89 90 90 89 88 91 95 93 90 87 90 89 87 83 78 72 64 66 75 68 83 80 74 81 81 79 83 88 84
73 75 75 72 75 79 82 86 87 86 87 88 90 94 93 94 94 96 96 95 95 95 96 95 93 88 84 80 72 77 81 81 71 67 74 77 88 83 87 89 87 88 86 87
91 90 90 91 87 89 94 94 95 96 96 94 95 95 95 96 96 96 96 96 94 92 92 89 80 74 62 62 67 66 80 82 71 79 88 83 89 93 90 83 88 90 92 92
97 97 97 96 97 97 96 93 91 94 96 95 93 95 95 96 96 96 95 92 94 93 85 74 63 57 56 56 54 82 84 86 86 86 88 90 92 89 90 90 92 91 91 92
96 96 97 96 94 96 96 93 90 93 94 95 95 95 94 95 96 95 96 90 89 89 73 75 69 78 64 84 67 85 79 79 84 87 89 90 90 91 91 90 91 91 92 90
95 95 94 94 93 93 93 93 95 92 94 95 95 96 95 93 90 90 91 84 73 76 82 84 84 82 83 92 88 88 88 85 87 90 90 91 92 93 89 90 91 90 90 93
94 93 94 91 81 79 89 91 87 89 94 94 96 97 92 92 87 79 77 80 85 90 90 91 88 83 86 92 93 93 89 90 89 92 93 87 92 94 93 91 92 92 91 92
94 95 94 92 88 91 90 88 86 84 80 75 74 72 77 83 92 90 88 86 82 92 89 85 84 82 90 93 93 91 89 90 92 90 90 93 93 92 90 91 94 92 93 91
92 91 91 93 93 90 86 81 88 90 81 88 90 92 92 90 90 86 84 85 84 82 85 93 90 90 89 86 86 86 90 90 90 92 93 89 88 88 90 92 91 91 92 92
92 90 84 84 81 80 81 80 85 88 92 92 93 89 89 93 90 87 92 87 87 90 88 86 89 88 92 89 88 88 86 88 91 93 89 91 90 90 91 92 92 91 89 89

GFSNGP_sfc_rhum_072.txt.gz
RH
42 40 40 40 38 34 34 43 51 44 45 36 33 33 26 26 25 27 28 38 43 51 95 98 95 96 98 98 98 95 98 98 99 99 99 98 98 98 99 98 98 98 98 98
61 44 41 46 42 36 36 33 40 42 45 33 30 31 28 26 25 26 28 32 40 61 90 96 93 96 98 98 98 96 98 98 98 98 98 98 98 98 98 98 98 97 98 97
69 46 49 69 57 49 44 39 34 41 38 29 27 30 26 29 28 28 36 55 68 70 83 96 93 95 97 97 95 96 97 96 96 96 97 97 94 95 96 97 97 98 97 95
84 65 91 60 40 43 48 37 32 25 24 28 25 24 24 27 32 38 43 60 74 85 96 97 94 94 94 92 92 94 94 93 93 93 94 92 91 93 96 96 97 97 96 93
79 75 66 53 38 38 40 35 28 28 22 22 25 38 42 38 36 37 53 81 90 93 96 97 97 93 91 91 88 89 91 90 88 88 89 89 94 97 96 96 95 92 88 89
88 82 87 59 36 31 32 53 32 28 29 28 37 50 44 46 54 61 76 90 94 96 95 95 94 90 92 93 90 90 87 84 82 82 84 91 93 93 96 94 87 82 91 82
96 91 78 52 38 35 49 56 36 32 32 34 39 42 38 58 63 68 78 87 92 92 94 94 90 87 90 88 88 79 79 78 80 83 90 92 93 94 94 96 93 94 91 84
90 92 82 50 43 48 52 46 43 40 38 37 39 54 57 62 69 74 81 86 88 93 94 92 87 83 87 87 77 75 78 83 85 86 83 87 93 96 88 84 88 92 92 95
70 75 60 72 65 64 60 56 49 48 48 48 52 56 63 63 68 73 79 82 79 81 82 81 77 74 81 82 80 82 83 88 89 88 86 83 87 88 87 85 84 91 92 94
66 64 65 66 62 69 68 59 52 52 44 58 56 64 63 68 70 74 75 75 72 73 77 83 76 75 78 79 78 79 77 71 69 64 69 72 70 74 80 86 89 87 90 93
73 69 66 70 66 62 63 65 52 50 50 45 58 61 69 69 65 68 72 73 70 75 79 80 77 76 73 72 66 60 55 55 63 70 73 71 68 71 82 89 88 86 92 88
83 59 61 57 61 64 61 45 52 55 53 51 56 61 68 68 73 67 74 73 72 71 68 63 63 65 62 55 51 53 56 62 72 72 74 65 60 73 78 76 75 75 75 85
45 42 57 50 48 50 45 47 54 58 53 53 58 63 65 65 72 79 72 66 60 58 59 60 62 65 60 60 59 62 66 67 73 75 75 75 81 83 87 82 74 70 71 80
69 51 59 60 62 58 57 57 59 57 66 68 67 67 68 72 69 65 59 54 52 53 56 58 64 68 65 65 70 78 83 88 86 88 89 91 91 91 90 92 96 95 83 66
78 72 51 62 61 60 59 60 67 73 71 72 68 70 66 63 59 57 54 54 55 56 55 55 65 79 79 83 83 88 88 91 92 94 94 95 95 96 95 95 92 92 90 84
82 75 70 68 69 70 68 73 76 78 76 73 73 72 68 65 66 64 62 62 70 79 81 89 90 90 89 89 91 92 93 96 95 95 96 95 96 96 95 95 95 95 95 94
92 94 88 86 86 84 80 75 75 78 78 76 76 72 69 71 72 76 79 83 90 93 93 93 96 95 95 95 95 95 95 95 96 94 95 95 95 95 95 96 96 96 95 94
86 88 86 84 86 88 88 86 84 81 81 78 79 84 86 87 88 91 93 91 94 94 95 95 95 95 94 93 92 92 93 93 93 94 93 95 94 93 96 95 94 94 95 93
84 88 88 86 87 88 88 89 89 86 87 88 89 93 92 93 93 95 95 94 94 94 96 95 95 93 94 94 93 94 94 95 94 92 94 92 94 93 93 96 96 96 95 95
88 88 88 90 88 89 94 94 91 94 95 93 93 94 95 95 95 94 93 95 95 94 94 92 89 89 85 89 89 85 89 91 86 91 94 94 97 97 97 95 97 98 99 98
95 94 95 94 96 95 96 96 94 95 96 95 93 95 95 95 95 94 93 90 96 92 85 74 71 76 84 78 80 91 93 94 95 97 97 98 98 98 98 98 99 98 98 98
94 94 95 95 94 95 96 95 94 94 94 94 95 94 94 95 94 94 93 90 83 80 74 74 80 93 90 90 89 93 91 93 96 95 95 96 96 96 97 98 99 99 100 100
95 95 95 94 94 95 94 94 95 94 95 95 95 95 94 93 92 89 92 83 77 80 80 89 92 94 92 93 94 96 98 97 99 99 99 99 99 100 100 99 99 98 99 99
95 94 95 95 93 88 92 95 92 92 94 94 94 92 86 92 94 86 82 87 88 89 92 92 88 87 89 93 96 97 98 98 100 100 100 100 100 100 100 100 99 98 98 100
95 95 95 94 91 93 92 91 89 89 88 86 85 84 85 84 91 95 94 93 91 93 95 95 94 94 95 97 98 100 100 100 100 100 100 100 100 100 100 100 100 100 100 100
93 92 92 93 93 92 92 88 91 89 84 92 93 94 94 92 92 91 91 92 93 94 95 95 94 96 99 100 100 100 100 99 100 100 100 100 100 100 100 100 100 100 100 100
92 93 91 90 90 90 88 86 89 93 92 93 95 95 93 94 93 93 95 96 96 97 99 100 99 100 100 100 100 100 100 100 100 100 100 100 100 100 100 100 100 100 100 100

GFSNGP_sfc_rhum_075.txt.gz
RH
40 33 43 45 45 44 47 41 48 46 50 40 37 36 32 29 30 29 34 42 50 50 66 79 75 77 70 76 77 80 81 82 91 99 99 99 98 96 98 98 98 98 98 99
50 41 38 44 43 49 49 46 45 44 49 39 33 35 37 32 28 27 29 32 48 60 91 94 93 96 99 99 98 93 97 98 99 99 99 99 99 99 99 99 99 98 99 98
72 54 60 76 59 42 50 52 51 51 45 37 37 34 34 32 31 29 28 30 50 59 84 93 96 94 95 98 98 97 98 98 98 98 98 98 98 98 99 99 98 99 99 98
82 74 93 63 47 41 47 46 43 39 32 29 31 28 30 31 30 33 31 34 39 57 93 96 97 90 94 95 97 98 97 98 98 98 97 96 96 97 98 98 98 98 98 97
94 82 64 60 51 49 58 55 44 42 36 29 25 34 32 37 34 34 38 44 71 87 94 90 89 93 92 94 94 95 96 96 94 93 95 94 98 98 98 98 98 96 93 93
99 86 89 62 39 36 45 73 43 36 40 43 39 50 38 34 43 45 54 89 96 98 94 91 90 91 93 93 93 94 93 91 89 90 92 96 97 98 96 93 92 90 85 87
99 99 78 55 47 43 75 70 46 39 34 41 44 43 35 51 62 69 85 91 96 97 97 94 92 90 94 93 93 88 86 86 88 89 92 92 93 94 92 90 92 90 89 86
95 95 88 55 58 55 58 54 52 53 43 48 50 45 44 50 67 78 94 98 96 98 98 96 95 95 96 94 85 83 83 87 89 90 88 90 93 94 90 90 93 91 90 90
71 79 56 66 62 65 62 58 55 63 58 59 57 54 62 64 77 89 94 97 96 97 98 96 91 88 93 89 81 84 86 90 92 92 92 96 93 91 90 89 94 91 87 91
77 60 67 64 68 71 68 60 56 55 57 55 55 55 68 75 85 89 89 90 89 91 94 93 86 84 85 85 84 88 91 83 76 78 76 75 76 81 83 88 91 88 91 93
71 66 65 63 65 56 65 64 55 52 55 59 58 61 74 75 79 82 82 85 84 87 88 88 85 86 83 81 75 70 69 69 74 74 70 70 73 75 81 86 85 88 90 88
60 52 63 54 52 59 64 62 50 59 56 51 55 62 76 78 82 81 87 84 81 76 76 76 75 72 71 65 62 66 69 72 77 71 67 62 65 74 77 78 79 80 82 88
86 74 61 59 55 63 59 50 58 60 61 56 60 66 71 82 85 79 69 69 70 72 71 71 72 73 66 63 64 69 74 73 74 71 73 77 78 84 92 91 82 84 85 84
79 84 59 70 63 66 64 68 69 65 68 74 74 74 75 67 62 60 62 63 65 70 74 76 77 78 71 72 77 82 86 89 88 90 91 92 92 91 90 93 97 97 88 77
86 83 86 73 73 74 73 72 71 73 72 71 67 66 63 65 67 65 61 61 67 77 81 81 85 87 82 84 86 89 91 94 95 96 96 95 96 96 96 96 96 96 96 96
87 85 84 88 86 82 77 75 77 80 76 74 73 71 70 72 76 78 78 77 84 92 89 95 94 92 90 90 94 94 94 96 95 95 95 95 95 96 95 95 95 96 96 96
95 96 94 94 92 89 85 80 77 78 76 75 74 73 74 78 81 84 86 85 90 93 93 92 96 96 95 95 95 95 94 93 94 91 92 92 94 94 94 95 96 95 96 97
93 88 89 90 91 90 88 84 82 80 82 81 82 87 90 91 92 92 93 90 91 93 95 96 95 95 95 95 94 94 93 92 91 92 90 94 95 93 95 95 94 95 96 95
94 87 88 86 86 86 86 87 88 87 89 89 90 93 92 92 93 95 95 94 94 93 96 95 95 94 94 94 88 87 90 91 90 91 92 94 95 94 96 97 97 98 98 97
92 90 87 89 86 87 93 94 92 94 93 90 89 91 94 95 95 94 92 94 95 95 94 94 93 93 89 85 83 84 89 91 90 94 95 96 97 97 98 97 98 99 99 99
95 94 94 93 95 94 95 95 93 95 96 94 93 94 94 95 95 94 92 90 95 93 92 92 86 84 82 79 80 91 93 94 94 96 96 97 97 97 98 98 100 100 100 100
95 94 95 95 94 95 95 95 94 94 94 94 94 94 93 94 94 94 94 91 88 90 87 87 86 88 84 87 87 93 91 93 96 96 97 97 99 100 100 100 100 100 100 100
95 95 95 94 94 95 94 94 95 94 94 94 94 95 94 93 92 90 92 79 80 86 81 85 86 90 92 94 95 95 95 96 98 99 100 100 100 100 100 100 100 100 100 100
95 94 95 94 93 88 92 95 93 93 94 94 95 95 90 92 92 82 85 90 91 90 91 93 95 96 94 97 98 99 100 100 100 100 100 100 100 100 100 100 100 100 100 100
95 95 95 94 92 93 93 93 91 91 90 89 90 87 86 82 90 94 93 93 94 92 95 95 98 98 98 99 100 100 100 100 100 100 100 100 100 100 100 100 100 100 100 100
94 93 93 94 94 92 92 89 91 89 85 92 93 94 94 92 91 92 94 92 91 91 96 98 99 98 99 100 100 100 100 99 100 100 100 100 100 100 100 100 100 100 100 100
93 93 91 90 89 87 85 85 91 94 93 94 95 94 93 94 94 93 96 96 98 99 100 100 99 99 100 100 100 100 100 100 100 100 100 100 100 100 100 100 100 100 100 100

GFSNGP_sfc_rhum_078.txt.gz
RH
54 40 34 46 47 44 46 53 54 52 57 40 37 33 31 36 34 33 35 43 51 58 63 67 73 74 70 75 76 75 80 81 79 80 82 88 95 96 96 96 95 96 99 99
64 50 43 44 44 49 52 52 54 52 49 36 38 37 39 33 32 31 31 37 44 54 58 65 71 79 84 86 83 80 84 84 82 89 97 98 100 100 100 99 99 99 99 99
75 58 55 73 54 48 50 51 52 67 52 40 39 39 39 35 36 33 31 30 35 43 51 63 87 92 96 99 97 90 88 94 98 98 99 99 99 99 99 99 99 99 99 99
90 83 91 61 46 39 44 41 46 47 46 39 35 33 35 36 34 37 32 31 35 39 61 95 97 98 98 97 98 98 98 98 98 99 99 99 99 99 99 99 99 99 99 99
99 96 75 57 56 56 61 58 50 49 45 40 37 35 32 31 35 31 34 31 33 43 93 98 96 94 96 97 98 98 98 98 98 98 98 98 99 99 99 98 98 98 97 96
99 95 96 64 48 46 50 76 49 49 56 48 40 51 41 35 40 40 40 60 89 95 95 96 97 93 96 98 97 98 97 97 95 96 97 98 98 98 98 96 96 92 95 97
99 97 86 62 52 51 73 68 53 51 51 58 49 47 38 44 43 64 77 95 98 94 95 95 92 92 96 96 97 93 91 92 93 94 95 95 96 96 95 93 92 94 94 91
96 99 92 58 58 69 67 62 60 58 55 62 61 65 58 56 56 81 95 98 98 94 94 89 88 90 96 96 90 88 90 93 93 93 92 93 95 95 93 91 93 93 93 92
79 81 66 66 66 69 68 67 60 60 57 57 60 58 60 68 82 94 99 96 96 95 97 97 93 88 94 93 87 90 92 95 95 94 94 92 92 94 94 91 91 92 88 91
74 62 66 63 67 67 73 64 56 54 56 61 56 64 71 81 93 97 96 98 94 96 97 98 91 92 93 90 87 89 89 89 88 87 86 83 84 86 91 93 92 89 88 86
80 66 67 61 66 63 60 71 68 54 55 55 60 64 74 85 91 88 92 89 87 92 92 93 90 93 93 92 82 82 83 82 85 82 81 81 81 81 86 89 89 89 90 89
95 83 96 84 59 53 65 62 63 58 58 55 66 76 83 91 91 87 85 83 82 83 82 76 72 72 75 75 76 82 84 82 82 78 76 71 78 90 94 96 97 97 96 96
92 87 86 81 78 68 65 66 72 72 78 82 78 81 84 77 75 77 72 75 79 81 79 78 78 78 74 74 75 79 81 85 89 90 93 94 94 94 94 94 83 79 80 80
84 87 88 89 93 82 77 75 72 71 70 68 65 66 69 69 70 74 79 79 77 79 81 81 82 83 78 78 81 84 86 88 84 85 89 95 96 95 93 94 96 96 94 92
86 83 86 84 78 79 74 74 76 78 74 73 71 71 70 75 81 86 83 82 84 87 86 87 90 91 83 84 84 90 91 94 95 95 95 95 94 95 95 94 95 96 95 95
92 87 87 89 84 81 78 79 85 86 80 79 80 82 82 83 85 86 85 82 86 91 87 92 91 94 94 93 94 93 94 95 94 94 94 93 93 93 93 94 94 95 94 95
96 95 95 95 91 90 85 79 79 81 80 80 80 78 78 81 82 85 87 85 90 94 94 93 96 95 95 94 93 94 94 93 94 90 91 92 93 94 93 94 94 94 96 96
92 91 91 87 89 87 86 84 83 82 85 84 86 89 90 90 90 92 93 93 92 93 94 95 95 95 94 95 94 93 93 92 89 91 90 93 93 92 95 94 93 94 96 95
89 92 94 94 90 84 83 84 85 84 88 88 89 93 92 92 93 95 94 93 93 92 96 95 95 94 93 94 90 89 90 91 90 90 90 92 95 94 96 97 98 100 99 98
89 88 92 94 94 89 93 94 92 94 94 91 91 91 94 95 94 94 92 94 95 95 95 94 92 91 86 82 83 83 90 91 88 94 94 94 96 98 98 98 98 100 100 100
95 95 96 95 96 95 95 94 90 94 95 93 92 94 94 95 95 94 93 91 96 94 92 90 82 80 75 76 79 90 91 93 94 95 96 98 98 100 100 100 100 100 100 100
96 95 95 94 93 95 95 95 93 94 94 94 94 94 93 95 94 94 95 92 92 92 85 83 84 88 84 85 85 92 90 92 95 96 98 99 100 100 100 100 100 100 100 100
95 94 94 94 94 95 94 94 94 94 94 94 94 94 93 93 92 92 93 85 76 82 80 90 91 92 91 93 94 96 96 97 98 99 100 100 100 100 100 100 100 100 100 100
95 94 94 95 94 90 93 95 93 93 94 94 94 94 90 93 94 85 84 89 92 93 94 94 96 98 95 96 97 98 99 100 100 100 100 100 100 100 100 100 100 100 100 100
95 95 94 94 92 93 93 94 91 92 91 91 92 88 83 81 91 94 93 93 94 92 96 96 99 99 99 100 100 100 100 100 100 100 100 100 100 100 100 100 100 100 100 100
94 93 93 94 94 92 92 90 92 91 87 92 93 95 95 92 90 89 91 90 91 92 95 98 100 100 100 100 100 100 100 99 100 100 100 100 100 100 100 100 100 100 100 100
94 93 92 91 91 91 90 85 90 94 92 93 96 94 92 94 93 92 96 97 98 98 100 100 100 100 100 100 100 100 100 100 100 100 100 100 100 100 100 100 100 100 100 100

GFSNGP_sfc_rhum_081.txt.gz
RH
77 66 64 58 37 33 42 42 48 41 38 33 34 30 29 33 32 29 27 33 45 49 56 60 63 62 59 60 63 63 64 65 67 69 68 64 66 75 76 79 75 75 78 83
86 63 63 64 44 33 38 37 40 43 41 32 29 28 31 31 34 28 27 28 33 41 48 58 61 63 65 64 65 63 64 67 65 64 65 69 72 82 89 87 84 83 89 95
77 75 86 72 50 38 34 37 37 45 37 32 34 36 33 33 37 34 32 29 30 34 41 47 52 64 66 65 66 68 66 65 67 68 67 71 80 96 97 97 99 99 99 99
92 98 97 50 44 37 39 35 38 39 36 32 32 32 35 31 33 34 33 33 31 31 37 48 58 58 68 67 68 70 69 70 74 80 87 98 98 98 99 99 99 99 99 99
98 97 91 62 56 52 47 42 37 38 34 33 31 35 32 31 30 34 35 35 33 30 41 69 73 78 76 81 78 78 86 94 96 96 97 97 98 99 98 98 98 98 97 97
99 93 88 72 54 44 43 60 46 46 48 44 36 50 43 40 44 40 39 38 36 41 67 73 81 81 83 92 93 96 96 96 95 95 97 98 98 97 96 95 95 94 97 96
89 89 75 57 52 53 61 58 51 51 46 48 51 43 46 57 54 53 69 73 82 77 78 77 81 80 88 90 96 93 92 92 94 93 94 94 96 94 92 93 94 96 96 94
89 92 84 57 57 66 60 65 59 52 51 57 60 59 57 62 74 82 90 90 85 86 91 86 82 84 89 94 90 89 90 92 93 93 92 92 93 92 91 92 94 95 95 94
76 74 63 63 61 62 63 68 55 60 54 57 63 64 58 68 86 95 94 92 87 89 92 91 86 84 94 95 90 91 92 95 95 93 91 89 92 94 94 91 93 93 91 92
68 54 66 57 54 59 56 60 60 62 54 55 65 62 64 78 92 93 94 94 88 93 95 97 91 90 90 90 87 88 92 91 90 90 89 88 89 90 90 92 92 90 88 86
71 60 66 53 57 64 65 69 58 52 53 56 58 66 73 83 89 87 89 90 88 92 96 96 93 93 87 83 79 84 86 85 84 83 84 89 90 87 91 92 87 88 90 89
69 82 87 78 67 73 78 76 66 60 58 70 68 81 81 81 78 78 80 79 79 80 79 76 74 76 77 75 73 77 80 80 81 81 83 80 81 88 97 97 97 95 96 90
87 80 82 77 75 72 76 70 66 66 68 71 68 70 71 74 75 81 77 78 84 92 92 83 85 90 90 83 78 81 84 86 86 86 86 88 87 85 91 93 83 83 84 82
80 83 81 81 86 72 71 65 65 64 64 64 65 67 74 79 80 85 88 84 82 83 85 90 95 96 97 95 93 92 92 94 92 91 93 95 94 93 83 85 90 91 85 81
79 80 84 76 70 70 67 68 72 73 73 76 73 77 78 83 87 88 82 78 79 84 88 91 94 95 90 90 90 94 93 94 95 95 95 94 90 86 83 82 84 85 83 82
81 81 80 84 80 74 72 73 77 81 78 78 80 80 79 78 80 81 79 76 80 88 88 93 91 95 95 94 92 92 93 95 93 91 90 87 84 82 81 82 82 83 82 84
90 94 94 94 87 82 80 75 75 77 77 78 79 75 73 76 78 82 86 84 89 94 94 94 96 95 95 95 94 93 92 91 90 83 81 81 82 81 80 81 82 83 87 88
86 88 87 87 86 83 82 79 77 77 80 79 81 88 90 89 89 91 92 88 88 92 94 96 95 94 95 95 92 90 88 84 80 83 81 84 81 78 81 79 78 80 83 82
86 90 90 88 87 86 83 84 84 81 88 89 89 93 93 93 93 94 94 93 94 92 96 95 94 92 92 93 87 86 86 84 79 78 79 82 84 79 84 85 84 84 80 80
84 85 90 91 92 92 94 95 95 95 95 93 93 92 94 95 94 94 91 95 95 93 93 93 90 90 86 83 78 74 80 82 78 84 85 84 88 90 87 85 84 88 89 88
92 93 94 94 95 95 95 96 95 95 95 94 92 94 94 95 94 93 92 89 95 92 90 90 84 74 66 66 68 82 84 85 86 85 85 87 87 85 87 89 89 89 89 87
93 93 95 95 92 94 94 95 94 94 94 94 94 94 93 94 94 94 95 90 88 88 76 73 75 80 73 74 73 83 79 80 83 83 85 85 86 88 89 88 88 86 85 84
95 94 94 94 92 94 94 94 94 94 94 94 94 94 93 91 89 89 91 79 69 75 72 81 84 85 85 86 86 86 85 85 86 87 88 89 89 89 87 85 85 86 86 86
94 93 93 93 92 86 92 94 92 93 94 94 94 95 91 93 93 78 77 83 87 87 88 88 90 90 84 88 88 88 86 87 89 90 92 93 91 89 87 89 86 86 88 90
94 94 93 93 90 91 91 92 89 90 89 89 90 85 82 77 89 87 86 86 85 82 87 92 92 91 89 88 86 87 88 88 90 90 90 90 91 90 89 88 90 89 89 90
92 89 91 93 91 89 88 87 89 88 82 91 91 92 91 84 81 80 84 81 79 82 88 92 92 90 89 89 90 91 90 87 88 90 92 90 89 86 89 88 90 90 91 91
91 91 89 88 88 88 86 79 85 88 86 90 91 86 84 87 87 81 86 87 90 92 94 95 93 94 92 92 91 92 91 92 98 90 91 90 89 90 91 92 92 93 93 93

GFSNGP_sfc_rhum_087.txt.gz
RH
27 23 25 30 30 29 30 31 37 28 23 18 16 15 18 15 15 16 15 15 18 25 28 29 33 38 41 44 46 45 45 48 54 58 56 56 60 61 64 67 62 58 58 56
42 29 28 30 26 25 25 27 27 26 25 15 15 15 17 14 14 16 16 15 17 18 24 30 31 36 39 42 46 46 47 50 49 53 52 57 59 60 62 62 58 56 55 55
60 30 41 51 29 26 31 33 31 31 23 18 17 18 19 18 17 16 17 18 19 20 18 22 30 33 36 39 42 46 48 46 47 49 52 54 53 53 56 62 63 63 60 58
68 52 65 28 35 43 51 48 40 31 20 16 16 16 16 15 17 22 22 22 23 20 21 20 21 28 35 34 38 44 45 45 45 47 48 48 49 50 55 59 66 72 80 84
77 58 38 28 29 39 48 54 44 37 17 15 14 15 17 16 24 28 30 31 32 33 31 24 22 21 30 34 36 40 44 44 43 46 46 47 49 52 55 72 93 94 95 95
61 60 63 52 36 45 47 69 67 59 40 29 29 43 42 33 35 35 34 37 42 42 41 34 27 28 26 36 36 40 43 40 40 44 47 50 54 84 88 90 94 93 95 94
65 60 50 45 39 45 74 95 70 72 55 70 39 36 37 33 34 36 42 45 46 48 49 50 36 39 35 34 37 38 41 42 46 49 58 85 90 91 92 94 96 97 97 95
64 58 69 38 42 72 76 74 73 86 79 71 78 32 30 37 41 47 48 52 56 65 73 64 56 52 50 64 78 76 82 86 90 90 88 88 91 92 93 96 97 96 95 95
44 46 64 39 57 51 54 58 52 55 50 52 51 35 32 40 48 56 64 65 69 76 85 85 74 73 90 92 88 89 91 92 92 90 90 90 94 96 95 92 94 94 91 93
78 65 67 45 53 48 45 54 48 44 43 42 42 35 33 46 54 66 77 81 82 87 94 95 90 88 89 88 86 88 91 91 90 91 92 91 89 89 91 93 92 90 88 88
34 59 49 62 51 53 49 48 49 46 46 50 49 50 50 56 64 70 78 81 81 84 89 89 90 92 88 86 84 88 90 90 92 92 93 94 94 93 94 95 89 89 89 89
77 62 62 51 51 53 52 51 51 51 49 48 50 53 58 69 74 77 83 79 81 88 93 94 92 90 86 84 84 88 90 90 91 90 89 86 86 92 96 95 96 96 96 94
72 58 55 60 49 52 55 51 51 51 51 54 54 57 66 78 82 86 82 82 90 98 96 96 98 99 98 99 90 90 93 93 91 86 85 85 84 85 92 97 96 96 96 95
58 56 57 64 71 58 56 50 52 48 51 56 58 61 72 77 78 81 84 81 79 82 91 92 94 97 97 98 97 96 96 96 96 97 96 96 95 95 94 93 93 94 93 89
58 53 69 64 59 58 57 57 55 56 58 62 65 74 74 76 78 80 77 76 77 82 86 87 91 96 92 90 91 94 95 96 97 97 96 95 94 94 93 92 92 92 91 85
58 56 57 63 62 61 61 62 67 67 65 68 68 72 73 73 75 77 77 76 81 88 85 92 91 96 96 94 93 94 95 96 95 95 96 95 93 93 93 91 90 91 91 92
70 68 65 66 67 68 69 70 70 71 71 72 76 73 72 75 77 81 85 87 90 93 92 92 97 96 96 96 94 94 92 93 95 93 92 86 86 86 86 87 87 82 81 79
67 68 66 67 69 69 68 70 70 72 80 79 83 93 94 92 90 92 94 94 92 92 94 95 92 92 93 91 86 85 85 85 85 88 87 90 85 78 75 72 70 72 73 69
70 78 82 76 76 68 67 70 72 73 83 87 90 94 95 95 94 96 96 95 94 92 95 93 86 85 86 88 77 77 79 79 75 72 72 73 77 69 73 73 72 71 67 69
71 73 78 84 86 83 88 89 89 90 91 89 90 92 94 95 93 94 93 95 95 92 91 81 70 68 63 61 62 61 68 71 66 73 75 72 77 79 76 69 71 75 77 76
86 85 86 87 90 89 91 90 90 92 93 90 90 93 94 94 94 94 92 91 94 83 67 61 52 48 45 49 53 70 73 75 76 76 76 78 78 75 76 76 76 77 78 76
85 85 88 88 88 92 92 92 91 92 92 92 93 94 94 94 94 93 94 87 75 65 59 60 61 64 56 62 60 73 68 70 73 74 77 77 77 78 78 77 77 77 76 76
86 83 84 87 89 91 90 91 92 92 92 92 92 92 92 89 88 87 87 63 56 64 61 71 71 71 70 76 77 77 75 75 76 77 78 79 78 78 77 77 76 76 77 76
87 86 89 90 91 86 89 92 90 91 92 92 93 94 88 90 80 61 62 70 74 78 79 77 76 72 71 79 79 78 78 78 78 78 75 71 78 76 75 76 75 76 76 75
83 86 88 90 87 86 89 90 88 89 88 84 73 64 64 62 77 72 73 72 69 68 76 73 72 72 78 79 79 79 80 81 79 77 76 77 76 76 76 76 77 78 78 77
82 79 82 88 84 80 81 79 80 77 70 74 73 78 76 70 67 68 71 68 68 69 75 79 78 77 78 76 77 76 75 72 75 75 74 74 75 74 76 75 76 76 78 78
80 79 74 73 70 71 69 66 69 71 71 77 76 73 71 75 74 69 72 76 76 76 78 78 78 75 75 75 74 73 72 75 84 75 76 76 76 77 78 78 78 79 79 79

GFSNGP_sfc_rhum_090.txt.gz
RH
29 23 23 24 25 31 31 27 36 32 27 21 20 19 19 20 20 19 17 17 23 28 32 34 42 48 48 55 57 56 57 66 73 74 73 73 71 72 73 73 69 66 66 64
44 31 28 29 24 23 26 26 25 24 26 19 18 16 17 18 18 15 17 17 18 20 25 31 34 43 48 52 58 56 55 58 60 68 69 71 71 72 72 74 72 70 70 69
64 39 35 51 35 25 22 23 25 40 39 32 29 21 18 18 20 19 19 21 23 24 24 28 35 40 46 49 54 55 55 54 56 60 64 68 67 69 72 75 75 76 76 73
75 60 67 32 20 33 31 32 32 32 31 30 50 25 17 21 22 21 27 30 31 33 36 34 30 36 41 41 48 54 54 53 54 57 62 62 64 66 71 73 78 78 77 78
78 65 44 34 26 31 39 41 62 70 65 66 54 25 22 29 31 35 37 39 43 42 44 44 42 31 37 38 42 49 52 54 52 55 58 62 65 69 73 76 80 92 96 97
71 69 65 46 59 44 39 60 63 75 81 74 64 56 58 39 38 39 42 44 47 48 47 49 46 36 36 40 42 44 50 50 53 54 58 62 66 73 91 94 95 95 97 96
77 73 51 39 64 73 72 81 68 69 82 87 88 72 79 79 38 40 43 49 54 58 64 66 60 55 50 55 55 46 51 59 70 74 79 90 92 92 94 96 97 97 97 97
72 67 72 55 48 82 74 59 59 60 76 83 76 61 58 65 52 54 59 64 67 74 80 77 70 70 81 88 83 82 84 89 90 89 88 90 95 96 96 97 97 97 96 96
56 54 66 84 68 49 49 56 56 61 57 72 71 58 61 90 77 72 74 79 80 84 89 87 82 81 91 93 86 89 90 94 94 93 92 93 97 97 97 94 94 95 92 94
68 54 63 76 59 50 49 54 52 51 52 54 63 70 69 67 70 75 79 82 80 82 87 90 88 87 87 85 83 86 92 92 91 94 94 93 91 92 93 94 93 92 92 92
66 63 68 72 58 56 52 51 52 49 52 54 57 62 68 72 75 79 80 81 83 88 92 92 88 89 88 87 84 88 89 90 92 92 92 94 95 95 94 96 91 90 93 94
99 66 65 74 60 56 57 56 53 53 56 54 60 67 72 82 82 81 84 85 88 89 90 96 93 93 92 92 89 88 91 92 93 91 90 90 89 94 96 96 95 93 91 90
68 55 60 62 56 54 59 57 53 53 56 63 64 69 76 83 82 84 82 82 90 97 96 94 96 97 99 97 97 97 94 95 94 92 90 90 89 88 93 96 96 96 96 96
54 54 66 62 66 55 55 55 54 53 57 62 67 68 75 79 79 82 87 86 85 86 92 92 94 98 97 97 95 96 95 96 96 97 97 96 96 96 95 94 95 96 95 93
56 52 60 53 52 54 54 56 59 62 64 67 67 75 76 80 83 84 82 78 82 86 90 90 92 97 94 92 94 96 94 96 96 97 96 95 94 95 94 94 94 93 93 93
57 54 54 58 59 60 60 65 70 71 70 71 74 77 81 84 85 83 85 82 84 91 92 95 94 97 97 96 94 94 96 97 96 96 96 96 95 94 93 93 92 93 94 95
72 74 71 73 72 70 69 68 69 74 74 77 81 79 77 84 86 88 92 93 94 95 95 95 97 97 96 96 95 94 92 91 91 92 93 92 92 92 90 89 89 87 87 84
68 68 71 74 79 79 72 70 71 74 82 81 83 90 93 91 92 94 95 94 93 93 94 96 96 96 95 94 92 90 87 86 86 88 86 89 88 86 84 82 80 81 83 81
74 80 82 79 84 76 74 75 78 82 90 92 91 94 94 94 94 95 95 94 94 92 96 95 96 95 95 95 91 91 90 88 85 82 81 82 84 80 84 84 84 84 83 84
75 75 77 82 86 85 90 92 91 93 94 94 93 93 94 95 94 94 91 94 95 95 95 91 86 85 78 73 72 71 78 80 77 82 84 83 86 86 85 82 85 87 88 88
87 85 87 88 93 92 93 92 91 94 94 92 91 94 94 94 93 92 91 90 96 94 92 87 67 58 56 60 64 80 82 84 85 85 85 87 86 85 86 86 87 88 89 90
86 90 92 91 91 94 94 94 94 94 94 94 95 94 93 94 94 94 95 93 91 92 84 82 77 75 68 72 73 82 79 81 84 86 87 87 87 88 88 88 89 90 90 91
88 86 87 92 92 92 92 92 94 93 94 94 94 94 93 92 90 90 93 81 70 76 73 82 80 79 80 85 84 84 84 84 86 87 88 89 88 89 89 91 90 90 90 92
88 89 91 89 87 80 88 92 90 92 94 93 94 95 90 93 94 78 72 77 80 84 85 84 83 80 81 87 88 89 87 87 87 87 86 88 90 91 89 92 92 90 92 91
86 87 87 87 82 83 86 88 87 89 89 88 84 73 72 70 86 81 83 81 78 78 85 79 79 81 86 87 87 88 89 91 90 88 88 89 90 90 89 91 92 92 93 93
82 81 83 89 84 78 80 79 84 84 80 84 82 87 84 79 76 75 78 76 77 78 84 86 88 87 86 84 85 86 87 89 86 87 89 89 90 89 91 91 92 93 94 94
86 81 78 76 72 74 77 77 78 76 76 84 82 81 77 81 81 76 80 84 84 85 86 87 86 84 84 85 85 84 86 90 92 90 90 91 91 92 94 93 94 94 94 94

GFSNGP_sfc_rhum_096.txt.gz
RH
60 48 43 40 55 45 42 49 72 65 59 47 56 53 59 56 52 42 35 31 54 69 66 73 78 80 79 80 82 83 85 78 76 80 84 84 81 78 78 78 78 75 73 72
68 52 51 54 46 42 37 34 36 40 48 74 65 62 64 73 66 41 45 55 54 56 70 72 73 79 80 82 83 80 79 78 76 76 80 85 85 84 83 86 82 78 78 74
85 68 62 68 53 42 39 80 68 64 88 73 76 70 81 85 72 62 66 71 72 76 72 76 83 84 83 86 86 84 84 84 83 79 78 79 82 85 85 84 85 88 85 81
93 75 86 51 49 64 82 82 79 79 81 77 76 70 74 80 82 84 84 86 85 85 82 84 84 83 79 73 79 83 82 83 83 83 83 78 78 80 85 85 86 86 88 85
94 96 67 55 73 79 76 88 76 83 83 79 68 69 76 78 83 87 87 86 86 83 83 84 85 84 82 86 82 80 77 79 84 86 85 85 86 87 86 89 92 91 88 88
95 88 88 86 68 60 64 98 73 80 81 84 78 93 90 81 84 85 83 83 83 84 81 81 82 81 85 88 90 91 89 88 90 85 87 88 88 89 90 89 92 99 100 99
91 95 80 85 80 73 83 98 77 76 78 89 95 94 91 82 79 78 79 80 77 79 83 83 79 78 84 86 94 91 88 92 96 96 94 91 91 97 99 99 98 99 98 98
92 94 90 79 78 85 89 84 74 77 79 89 88 89 89 84 83 78 80 79 78 84 87 82 80 81 87 92 87 87 89 90 92 96 97 98 98 99 99 98 98 98 98 98
77 82 89 89 79 70 70 72 75 80 79 83 82 82 86 89 86 82 83 81 80 86 87 86 84 83 91 88 84 86 88 90 92 91 91 94 97 98 98 98 98 97 95 97
89 93 88 77 69 66 67 72 72 74 74 75 84 81 81 81 83 89 84 86 82 84 88 92 90 87 85 83 79 82 88 89 88 91 93 94 93 95 96 99 98 96 95 96
98 96 78 78 70 70 69 69 72 72 73 77 78 80 79 82 83 85 85 84 86 91 94 95 93 94 88 80 80 82 83 84 88 89 89 92 94 95 94 98 97 94 93 91
99 100 98 80 68 65 71 73 72 74 77 74 75 78 78 84 82 83 86 84 89 93 96 96 94 93 90 85 84 87 89 88 88 86 88 88 89 94 96 96 97 96 96 94
99 99 95 76 62 66 71 69 69 73 74 76 73 74 78 83 83 83 83 85 90 96 95 96 98 98 94 90 89 91 94 93 92 91 90 91 89 87 94 98 97 98 97 97
80 69 71 66 76 72 71 66 68 70 72 76 74 71 75 77 77 81 87 89 86 86 91 92 94 98 96 92 90 91 91 90 93 94 93 92 92 94 94 93 94 96 96 95
89 70 66 64 65 71 70 71 74 77 76 78 74 77 74 79 82 85 86 86 84 86 90 89 91 96 95 90 91 92 91 93 94 94 93 91 91 92 92 92 93 95 94 93
68 66 66 75 76 70 71 76 80 81 77 76 78 77 78 78 82 86 86 86 85 92 92 94 94 96 95 93 92 92 93 93 91 92 92 90 89 90 91 92 93 94 94 95
77 79 79 79 87 83 83 83 80 78 78 78 79 77 76 79 80 85 91 92 92 95 95 94 97 95 94 95 94 95 94 94 93 92 92 90 90 91 91 92 92 92 95 92
82 82 80 83 83 81 80 77 77 78 83 85 87 90 93 93 92 92 94 91 90 91 94 96 96 95 95 96 94 92 92 93 93 94 92 92 92 89 91 90 90 92 94 93
80 86 87 81 81 79 77 79 83 84 91 93 92 95 94 94 95 95 94 92 92 91 96 95 95 95 95 95 92 91 93 94 92 92 92 92 92 90 93 94 94 94 93 94
80 82 87 92 93 91 95 96 95 96 96 94 93 93 94 95 95 95 93 95 96 96 95 95 94 94 94 94 93 91 93 94 91 93 92 92 94 95 94 94 94 96 96 96
98 96 97 96 97 96 96 96 94 96 96 94 93 95 96 96 95 95 94 93 96 95 94 92 91 90 88 90 90 93 92 92 93 93 93 94 94 94 95 95 96 97 98 97
99 98 99 97 96 96 96 95 94 95 95 95 96 94 93 95 94 94 95 95 93 94 93 91 86 86 83 86 86 92 90 91 93 93 95 95 96 96 97 96 98 98 98 99
98 96 96 96 96 96 94 94 95 95 96 96 96 96 95 95 94 93 94 91 87 90 86 90 89 91 90 92 92 92 92 92 94 94 94 96 96 97 96 97 100 98 98 99
95 94 95 95 95 89 94 96 94 95 96 96 97 96 90 94 95 83 83 88 91 92 93 93 91 89 90 94 94 95 94 95 96 96 96 95 98 98 97 98 100 100 100 100
95 97 94 94 94 97 97 96 93 92 91 92 93 90 85 85 96 94 96 93 92 92 96 91 91 92 92 94 94 95 96 96 96 96 97 98 99 99 100 100 100 100 100 100
95 95 95 94 92 93 92 87 92 91 85 92 92 97 97 93 91 92 93 92 92 91 95 96 96 95 95 92 94 95 96 95 96 98 99 99 99 100 100 100 100 100 100 100
95 93 94 94 94 95 93 88 93 94 94 96 96 97 95 97 96 96 98 98 98 98 97 98 96 94 96 98 98 96 98 99 100 100 100 100 100 100 100 100 100 100 100 100

GFSNGP_sfc_rhum_099.txt.gz
RH
65 53 49 53 52 62 50 53 66 62 54 63 76 73 66 63 65 68 60 76 82 81 82 84 88 89 88 91 90 91 86 84 82 88 83 82 81 79 76 76 76 79 77 78
72 61 57 60 51 48 48 44 46 55 52 74 70 69 82 84 70 68 83 80 80 84 88 87 90 92 92 93 92 88 89 92 86 89 88 87 85 81 81 79 77 80 79 80
79 74 64 69 60 52 84 84 83 78 86 76 78 81 92 91 91 88 86 87 85 87 89 90 90 89 95 92 91 93 91 89 86 85 89 87 85 83 83 83 82 83 83 81
92 79 80 62 70 65 79 79 80 80 77 80 76 83 86 88 93 94 86 88 87 86 87 87 86 88 87 89 90 90 89 88 87 85 86 86 85 87 87 85 87 88 87 87
93 96 64 74 73 77 85 98 78 85 78 78 81 72 89 82 83 88 88 85 84 82 82 80 80 82 85 88 86 88 87 89 87 88 88 86 88 89 90 90 90 90 90 91
95 90 91 83 77 74 77 98 81 82 85 88 77 97 94 84 81 81 78 79 82 81 80 81 78 76 82 88 88 91 89 90 91 95 89 88 86 87 87 88 92 92 92 99
94 95 79 77 83 77 83 89 86 82 90 90 93 88 88 83 84 79 77 78 79 81 87 83 78 79 86 88 94 88 86 87 90 92 96 96 91 91 92 93 100 99 99 99
91 96 87 83 79 75 88 91 81 85 90 87 88 87 85 85 87 88 86 83 79 85 89 84 80 82 87 89 84 84 86 89 90 90 90 94 97 98 98 99 98 99 98 99
82 85 90 82 86 78 76 81 84 85 84 86 85 82 81 85 86 88 88 88 80 84 88 88 86 81 88 84 80 83 86 88 89 89 91 91 95 96 97 95 96 97 95 97
91 93 88 86 74 72 74 81 77 76 78 79 84 80 80 80 82 88 88 88 84 88 93 95 89 87 83 80 76 80 86 87 87 90 92 92 92 93 94 94 94 95 96 96
99 99 96 85 76 76 78 76 76 75 77 79 75 80 79 82 83 83 84 85 87 93 95 95 90 88 84 82 77 79 83 84 88 88 91 94 96 96 96 98 93 93 96 95
100 100 98 97 70 73 78 79 77 78 78 74 74 79 78 84 82 83 86 86 87 91 95 96 93 90 87 86 87 89 89 88 90 88 88 88 89 92 96 97 97 97 94 91
99 100 99 99 83 68 76 76 74 78 78 77 75 74 76 82 82 83 82 85 90 96 95 96 98 97 94 90 90 93 95 93 90 90 90 90 88 87 93 92 94 96 97 97
95 95 95 85 84 72 72 73 73 74 75 77 77 75 75 77 78 82 87 89 88 87 91 92 93 97 96 93 92 93 93 93 94 95 94 93 93 93 91 91 93 94 91 92
94 71 75 68 65 70 72 74 79 80 74 77 75 78 78 80 83 85 84 77 77 82 88 89 91 96 96 92 92 94 92 94 94 94 93 91 90 91 91 91 93 95 94 92
87 69 70 84 77 74 77 80 81 80 78 77 77 78 80 81 82 84 86 84 86 92 92 95 94 97 95 93 93 91 91 91 91 92 91 92 91 90 90 91 92 93 94 95
76 78 78 79 84 83 82 78 78 79 81 83 84 82 79 79 80 83 90 92 93 94 95 95 96 96 95 95 93 94 94 93 90 89 92 91 91 92 91 92 93 93 94 94
80 79 78 76 82 80 78 76 77 78 83 85 87 92 94 93 91 92 94 93 92 92 94 96 95 95 95 95 94 94 92 92 91 92 92 93 92 90 92 90 90 93 94 92
80 85 84 78 81 79 78 80 83 84 91 92 93 96 96 96 95 96 94 92 93 92 96 95 94 94 94 94 92 92 93 93 92 92 92 93 94 92 93 94 94 94 92 92
80 82 86 91 92 90 95 96 95 96 96 94 94 94 95 96 96 96 92 96 96 97 95 95 94 94 93 92 89 88 91 93 91 93 93 93 94 95 94 92 93 94 94 95
97 96 97 96 97 97 97 96 95 96 96 96 94 97 97 97 95 94 92 93 96 95 93 91 89 89 86 86 85 92 93 94 94 95 94 95 95 95 95 95 96 96 96 96
99 98 98 97 96 97 97 96 95 95 96 96 96 96 95 96 95 94 95 96 94 92 90 91 90 92 88 89 89 93 92 92 94 94 95 95 96 96 97 96 97 98 98 98
98 96 96 97 97 98 96 96 97 96 97 97 97 96 96 96 95 93 94 91 88 91 87 93 93 93 93 94 94 94 93 94 95 95 96 96 96 96 97 98 98 98 99 99
96 96 100 98 96 91 97 98 94 96 97 96 97 97 94 96 96 90 90 92 93 95 94 94 93 93 93 95 95 95 95 95 96 96 96 96 97 97 98 99 100 100 99 99
97 98 97 96 95 98 97 97 94 94 93 94 94 90 89 88 98 96 96 95 93 93 96 94 95 95 95 96 96 96 96 97 98 97 97 97 98 100 100 100 100 100 100 100
96 96 97 96 94 94 94 90 93 93 88 95 95 98 98 95 93 92 94 91 93 93 96 97 96 95 95 95 97 97 97 97 98 98 98 100 99 100 100 100 100 100 100 100
96 95 95 95 94 95 92 88 94 97 96 98 98 98 96 97 97 95 96 96 97 97 98 98 98 97 97 97 97 99 100 100 99 100 100 100 100 100 100 100 100 100 100 100